233P/La Sagra (2010)

Japanese version
Home page
Updated on March 15, 2010

---------------------------------------------------------------------

* Profile

Designation 233P/2009 WJ50
Discovery Date November 19, 2009
Magnitude 18.7 mag
Discoverer La Sagra Sky Survey

* Orbital Elements

Epoch 2010 Mar. 25.0 TT = JDT 2455280.5
T 2010 Mar. 12.39525 TT                                 MPC
q   1.7915591            (2000.0)            P               Q
n   0.18645940     Peri.   27.12523     -0.20147737     -0.96111343
a   3.0344492      Node    74.99581     +0.85947689     -0.26595214
e   0.4095933      Incl.   11.27542     +0.46979394     +0.07436689
P   5.29

* Magnitudes Graph

        m1 = 16.5 + 5 log d + 10.0 log r

---------------------------------------------------------------------

The orbital elements are published on M.P.E.C. 2010-D02.
The magnitudes graphs are made with Comet for Windows.

---------------------------------------------------------------------

Copyright(C) Seiichi Yoshida (comet@aerith.net). All rights reserved.